Date String (YYYY-MM-DD hh:mm:ss) UTC,Instrument flags,Ambient pressure (hPa),Sample flow (lpm),Bypass flow (lpm),Sample temperature (°C),Ambient temperature (°C),ASC tube jacket temperature (°C),LED temperature (°C),Box temperature (°C),Sample RH (%),Span deviation,Mass concentration (μg/m³),Mass concentration (μg/m³),Mass concentration (μg/m³)
DateTimeUTC,F1_M11,P_M11,Q1_M11,Q2_M11,T1_M11,T2_M11,T3_M11,T4_M11,T5_M11,U1_M11,ZSPAN_M11,X0_M11,X2_M11,X1_M11
2022-03-11 23:00:00,,0827.4,5.00,0.00,23.3,22.6,00.0,32.3,25.1,07.3,0000.8,0015.96,0009.57,0008.73
2022-03-11 23:01:00,,0827.4,4.99,0.00,23.3,22.6,00.0,32.3,25.1,07.2,0000.7,0015.87,0009.49,0008.61
2022-03-11 23:02:00,,0827.5,4.99,0.00,23.3,22.6,00.0,32.3,25.1,07.1,0001.1,0015.60,0009.32,0008.48
2022-03-11 23:03:00,,0827.5,5.00,0.00,23.3,22.6,00.0,32.3,25.1,07.4,0001.2,0016.10,0009.26,0008.38
2022-03-11 23:04:00,,0827.5,5.01,0.00,23.4,22.6,00.0,32.3,25.1,07.4,0001.8,0016.55,0009.20,0008.32
2022-03-11 23:05:00,,0827.5,5.00,0.00,23.4,22.7,00.0,32.3,25.1,07.4,0001.4,0016.77,0009.16,0008.30
2022-03-11 23:06:00,,0827.5,5.00,0.00,23.4,22.7,00.0,32.3,25.1,07.3,0001.1,0016.64,0009.16,0008.31
2022-03-11 23:07:00,,0827.5,4.99,0.00,23.4,22.7,00.0,32.3,25.1,07.4,0001.3,0016.55,0009.17,0008.32
2022-03-11 23:08:00,,0827.6,5.00,0.00,23.4,22.7,00.0,32.3,25.1,07.7,0002.3,0016.50,0009.15,0008.30
2022-03-11 23:09:00,,0827.6,5.00,0.00,23.4,22.7,00.0,32.3,25.1,07.4,0001.8,0015.92,0009.03,0008.23
2022-03-11 23:10:00,,0827.6,4.99,0.00,23.4,22.7,00.0,32.3,25.1,07.2,0000.4,0015.86,0008.89,0008.07
2022-03-11 23:11:00,,0827.6,4.99,0.00,23.4,22.7,00.0,32.3,25.1,07.0,0000.0,0015.82,0008.76,0007.91
2022-03-11 23:12:00,,0827.5,5.00,0.00,23.4,22.6,00.0,32.3,25.1,06.9,0001.9,0015.72,0008.58,0007.76
2022-03-11 23:13:00,,0827.5,5.01,0.00,23.3,22.6,00.0,32.3,25.0,07.0,0003.7,0015.45,0008.41,0007.61
2022-03-11 23:14:00,,0827.6,5.00,0.00,23.3,22.6,00.0,32.3,25.0,07.1,0004.1,0014.78,0008.24,0007.47
2022-03-11 23:15:00,,0827.6,4.99,0.00,23.3,22.5,00.0,32.3,24.9,07.0,0003.9,0014.08,0008.07,0007.27
2022-03-11 23:16:00,,0827.6,5.01,0.00,23.2,22.4,00.0,32.3,24.9,07.2,0004.0,0014.59,0007.86,0007.08
2022-03-11 23:17:00,,0827.6,4.99,0.00,23.2,22.4,00.0,32.3,24.9,07.2,0004.7,0015.83,0007.61,0006.85
2022-03-11 23:18:00,,0827.6,5.00,0.00,23.2,22.4,00.0,32.3,24.8,07.2,0005.0,0015.84,0007.35,0006.64
2022-03-11 23:19:00,,0827.6,5.01,0.00,23.1,22.3,00.0,32.3,24.8,07.0,0003.7,0015.66,0007.17,0006.46
2022-03-11 23:20:00,,0827.7,5.00,0.00,23.1,22.3,00.0,32.2,24.8,07.0,0004.0,0015.32,0007.05,0006.34
2022-03-11 23:21:00,,0827.6,5.02,0.00,23.1,22.3,00.0,32.2,24.8,06.9,0003.5,0015.07,0006.98,0006.29
2022-03-11 23:22:00,,0827.6,4.99,0.00,23.1,22.4,00.0,32.2,24.8,07.0,0003.5,0015.72,0006.92,0006.23
2022-03-11 23:23:00,,0827.7,5.01,0.00,23.1,22.4,00.0,32.2,24.9,06.9,0004.2,0015.73,0006.89,0006.19
2022-03-11 23:24:00,,0827.6,5.00,0.00,23.1,22.4,00.0,32.2,24.9,07.1,0004.5,0015.90,0006.89,0006.16
2022-03-11 23:25:00,,0827.6,5.00,0.00,23.1,22.4,00.0,32.2,24.9,07.2,0004.4,0015.73,0006.83,0006.10
2022-03-11 23:26:00,,0827.5,5.00,0.00,23.1,22.4,00.0,32.2,24.9,07.0,0004.4,0015.49,0006.78,0006.06
2022-03-11 23:27:00,,0827.5,5.02,0.00,23.2,22.4,00.0,32.2,24.9,06.9,0004.3,0014.28,0006.77,0006.02
2022-03-11 23:28:00,,0827.5,5.00,0.00,23.2,22.5,00.0,32.2,24.9,07.1,0003.7,0012.73,0006.79,0006.01
2022-03-11 23:29:00,,0827.6,4.99,0.00,23.2,22.5,00.0,32.2,24.9,06.9,0003.0,0012.61,0006.79,0005.99
2022-03-11 23:30:00,,0827.7,5.00,0.00,23.2,22.5,00.0,32.2,24.9,07.0,0002.2,0012.13,0006.73,0005.96
2022-03-11 23:31:00,,0827.6,5.01,0.00,23.2,22.5,00.0,32.2,24.9,07.2,0001.9,0012.12,0006.69,0005.93
2022-03-11 23:32:00,,0827.6,5.00,0.00,23.2,22.5,00.0,32.2,25.0,07.3,0002.4,0012.14,0006.67,0005.90
2022-03-11 23:33:00,,0827.6,4.99,0.00,23.2,22.5,00.0,32.2,25.0,07.0,0002.0,0011.74,0006.71,0005.89
2022-03-11 23:34:00,,0827.7,5.00,0.00,23.2,22.5,00.0,32.2,25.0,07.1,0000.1,0011.72,0006.70,0005.89
2022-03-11 23:35:00,,0827.6,5.01,0.00,23.2,22.5,00.0,32.2,25.0,07.1,0000.0,0011.63,0006.70,0005.90
2022-03-11 23:36:00,,0827.6,5.00,0.00,23.2,22.5,00.0,32.2,25.0,07.1,0000.0,0012.42,0006.71,0005.92
2022-03-11 23:37:00,,0827.6,5.00,0.00,23.2,22.6,00.0,32.2,25.0,07.1,0000.0,0012.89,0006.67,0005.92
2022-03-11 23:38:00,,0827.7,5.00,0.00,23.2,22.5,00.0,32.2,25.0,07.0,0000.0,0012.79,0006.64,0005.91
2022-03-11 23:39:00,,0827.7,4.99,0.00,23.2,22.5,00.0,32.2,25.0,07.0,0000.0,0012.98,0006.58,0005.87
2022-03-11 23:40:00,,0827.7,5.01,0.00,23.2,22.5,00.0,32.2,25.0,07.1,-000.1,0012.87,0006.54,0005.84
2022-03-11 23:41:00,,0827.7,4.99,0.00,23.2,22.5,00.0,32.2,25.0,07.0,-000.0,0012.73,0006.49,0005.79
2022-03-11 23:42:00,,0827.7,5.01,0.00,23.2,22.5,00.0,32.2,25.0,06.9,0000.0,0012.63,0006.43,0005.76
2022-03-11 23:43:00,,0827.7,5.01,0.00,23.2,22.5,00.0,32.2,25.0,06.9,0000.0,0012.52,0006.38,0005.73
2022-03-11 23:44:00,,0827.7,4.99,0.00,23.2,22.5,00.0,32.2,25.0,06.9,0000.0,0012.17,0006.30,0005.70
2022-03-11 23:45:00,,0827.7,5.00,0.00,23.2,22.5,00.0,32.2,24.9,06.9,-000.2,0012.04,0006.26,0005.66
2022-03-11 23:46:00,,0827.7,5.01,0.00,23.2,22.5,00.0,32.2,24.9,06.9,-000.1,0012.08,0006.19,0005.62
2022-03-11 23:47:00,,0827.7,5.01,0.00,23.2,22.4,00.0,32.2,24.9,06.9,0000.0,0011.48,0006.11,0005.56
2022-03-11 23:48:00,,0827.7,5.00,0.00,23.1,22.4,00.0,32.2,24.9,07.0,0000.8,0010.92,0006.08,0005.52
2022-03-11 23:49:00,,0827.7,4.99,0.00,23.1,22.3,00.0,32.2,24.8,07.0,0000.4,0010.66,0006.04,0005.49
2022-03-11 23:50:00,,0827.7,5.00,0.00,23.1,22.4,00.0,32.2,24.8,07.1,-000.3,0010.93,0005.99,0005.45
2022-03-11 23:51:00,,0827.7,5.00,0.00,23.1,22.4,00.0,32.1,24.8,07.0,-000.0,0010.72,0005.92,0005.43
2022-03-11 23:52:00,,0827.7,5.01,0.00,23.1,22.4,00.0,32.1,24.9,06.9,-000.4,0011.04,0005.93,0005.41
2022-03-11 23:53:00,,0827.7,5.00,0.00,23.1,22.4,00.0,32.1,24.9,07.0,0000.0,0012.85,0005.92,0005.42
2022-03-11 23:54:00,,0827.7,4.99,0.00,23.1,22.4,00.0,32.1,24.8,07.2,0000.0,0013.05,0005.95,0005.43
2022-03-11 23:55:00,,0827.7,5.01,0.00,23.1,22.3,00.0,32.1,24.8,07.1,0000.0,0013.13,0005.96,0005.43
2022-03-11 23:56:00,,0827.7,4.99,0.00,23.0,22.3,00.0,32.1,24.7,07.1,0000.0,0012.95,0005.94,0005.43
2022-03-11 23:57:00,,0827.7,5.01,0.00,23.0,22.2,00.0,32.1,24.6,07.2,0000.0,0012.63,0005.92,0005.42
2022-03-11 23:58:00,,0827.7,5.02,0.00,22.9,22.1,00.0,32.1,24.6,07.0,-000.9,0012.48,0005.97,0005.45
2022-03-11 23:59:00,,0827.7,4.99,0.00,22.9,22.0,00.0,32.1,24.5,07.1,-000.1,0012.54,0006.00,0005.45
